Flight Track Log - Related Links

Times and Time Zones

All times are in EDT time to prevent confusion due to time zone crossing. See the SWA1535 flight status page for this flight to view local times or setup timezone preferences in your user account.

Time Position Orientation Groundspeed Altitude Reporting Facility
EDT Latitude Longitude Course Direction KTS MPH feet Rate Location/Type
09:35PM 41.3519 -95.9603 317° Northwest 203 234 4,300  Level Minneapolis Center
09:36PM 41.3639 -96.0506 280° West 272 313 7,700 3,200 Climbing Minneapolis Center
09:37PM 41.3869 -96.1692 285° West 294 338 11,500 3,285 Climbing Minneapolis Center
09:38PM 41.4006 -96.2953 278° West 340 391 15,200 3,415 Climbing Minneapolis Center
09:39PM 41.3994 -96.3994 269° West 351 404 18,500 3,805 Climbing Minneapolis Center
09:40PM 41.3992 -96.5506 270° West 344 396 23,000 3,561 Climbing Minneapolis Center
09:41PM 41.3975 -96.6764 269° West 341 392 25,800 2,537 Climbing Minneapolis Center
09:42PM 41.3967 -96.8336 270° West 352 405 28,200 2,146 Climbing Minneapolis Center
09:43PM 41.3950 -96.9711 269° West 366 421 30,200 1,881 Climbing Minneapolis Center
09:44PM 41.3939 -97.1075 269° West 369 425 32,400 1,918 Climbing Minneapolis Center
09:45PM 41.3922 -97.2681 269° West 363 418 34,900 1,809 Climbing Minneapolis Center
09:46PM 41.3667 -97.4200 257° West 352 405 36,500 1,366 Climbing Minneapolis Center
09:47PM 41.3406 -97.5492 255° West 359 413 37,700 1,122 Climbing Minneapolis Center
09:48PM 41.3094 -97.7003 255° West 365 420 38,800 1,024 Climbing Minneapolis Center
09:49PM 41.2867 -97.8347 257° West 371 427 39,800 590 Climbing Minneapolis Center
09:50PM 41.2697 -97.9439 258° West 374 430 40,000 98 Climbing Minneapolis Center
09:52PM 41.2431 -98.1053 258° West 373 429 40,000  Level Minneapolis Center
09:53PM 41.2208 -98.2400 258° West 373 429 40,000  Level Minneapolis Center
09:54PM 41.1981 -98.3725 257° West 370 426 40,000  Level Minneapolis Center
09:55PM 41.1753 -98.5111 258° West 370 426 40,000  Level Minneapolis Center
09:56PM 41.1528 -98.6433 257° West 369 425 40,000  Level Minneapolis Center
09:57PM 41.1300 -98.7753 257° West 369 425 40,000  Level Minneapolis Center
09:58PM 41.1067 -98.9094 257° West 370 426 40,000  Level Minneapolis Center
09:59PM 41.0889 -99.0458 260° West 375 432 40,000  Level Minneapolis Center
09:59PM 41.0775 -99.1378 261° West 376 433 40,000  Level Denver Center
10:00PM 41.0603 -99.2764 261° West 380 437 40,000  Level Denver Center
10:01PM 41.0425 -99.4133 260° West 378 435 40,000  Level Denver Center
10:02PM 41.0247 -99.5508 260° West 378 435 40,000  Level Denver Center
10:03PM 41.0033 -99.7156 260° West 378 435 40,000  Level Denver Center
10:04PM 40.9869 -99.8381 260° West 378 435 40,000  Level Denver Center
10:05PM 40.9664 -99.9897 260° West 376 433 40,000  Level Denver Center
10:06PM 40.9492 -100.1208 260° West 376 433 40,000  Level Denver Center
10:08PM 40.9292 -100.2719 260° West 376 433 40,000  Level Denver Center
10:09PM 40.9114 -100.4025 260° West 377 434 40,000  Level Denver Center
10:10PM 40.8903 -100.5561 260° West 380 437 40,000  Level Denver Center
10:11PM 40.8744 -100.6717 260° West 378 435 40,000  Level Denver Center
10:12PM 40.8528 -100.8094 258° West 380 437 40,000  Level Denver Center
10:13PM 40.8319 -100.9628 260° West 384 442 40,000  Level Denver Center
10:14PM 40.8097 -101.1192 259° West 387 445 40,000  Level Denver Center
10:15PM 40.7897 -101.2528 259° West 389 448 40,000  Level Denver Center
10:16PM 40.7708 -101.3881 260° West 391 450 40,000  Level Denver Center
10:17PM 40.7475 -101.5444 259° West 391 450 40,000  Level Denver Center
10:18PM 40.7278 -101.6789 259° West 391 450 40,000  Level Denver Center
10:19PM 40.7044 -101.8342 259° West 389 448 40,000  Level Denver Center
10:20PM 40.6833 -101.9672 258° West 389 448 40,000  Level Denver Center
10:21PM 40.6614 -102.1231 260° West 388 447 40,000  Level Denver Center
10:22PM 40.6442 -102.2336 258° West 388 447 40,000  Level Denver Center
10:23PM 40.6208 -102.3872 259° West 385 443 40,000  Level Denver Center
10:24PM 40.5964 -102.5419 258° West 386 444 40,000  Level Denver Center
10:25PM 40.5747 -102.6781 258° West 387 445 40,000 -1,024 Level Denver Center
10:26PM 40.5522 -102.8172 258° West 385 443 37,900 -2,390 Descending Denver Center
10:27PM 40.5303 -102.9572 258° West 388 447 35,100 -2,439 Descending Denver Center
10:28PM 40.5078 -103.0936 258° West 379 436 32,900 -2,146 Descending Denver Center
10:29PM 40.4878 -103.2247 259° West 367 422 30,700 -2,098 Descending Denver Center
10:30PM 40.4664 -103.3514 258° West 353 406 28,600 -2,016 Descending Denver Center
10:31PM 40.4464 -103.4739 258° West 343 395 26,600 -1,770 Descending Denver Center
10:32PM 40.4300 -103.5719 258° West 331 381 25,000 -1,951 Descending Denver Center
10:33PM 40.4056 -103.7164 258° West 315 362 22,600 -2,032 Descending Denver Center
10:34PM 40.3867 -103.8297 258° West 313 360 20,800 -1,805 Descending Denver Center
10:35PM 40.3689 -103.9469 259° West 307 353 18,900 -1,475 Descending Denver Center
10:36PM 40.3561 -104.0514 261° West 291 335 17,800 -1,415 Descending Denver Center
10:37PM 40.3558 -104.1569 270° West 289 333 16,000 -1,756 Descending Denver Center
10:38PM 40.3536 -104.2650 268° West 279 321 14,200 -1,082 Descending Denver Center
10:39PM 40.3489 -104.3647 266° West 277 319 13,800 -683 Descending Denver Center
10:40PM 40.3306 -104.4625 256° West 276 318 12,800 -1,024 Descending Denver Center
10:41PM 40.3067 -104.5622 253° West 275 316 11,700 -1,033 Descending Denver Center
10:42PM 40.2492 -104.6350 224° Southwest 284 327 10,700 -829 Descending Denver Center
10:43PM 40.1778 -104.6844 208° Southwest 292 336 10,000 -683 Descending Denver Center
10:44PM 40.0983 -104.6939 185° South 295 339 9,300 -1,131 Descending Denver Center
10:45PM 40.0172 -104.6947 180° South 272 313 7,700 -1,377 Descending Denver Center
10:46PM 39.9564 -104.6956 181° South 221 254 6,500 -976 Descending Denver Center
10:47PM 39.9131 -104.6961 181° South 161 185 5,700 -585 Descending Denver Center
10:48PM 39.8778 -104.6967 181° South 129 148 5,300 -393 Descending Denver Center
10:50PM 39.8617 -104.6732 North  Level Estimated
10:57PM 39.8617 -104.6732 North  Level Estimated
10:58PM 39.8617 -104.6732 North  Level Estimated

Login

Don't have an account? Register now (free) for customized features, flight alerts, and more!